Location: Leiter
(44.7178°N, 106.2687°W)
Time: 21:33:16
(UTC+00:00)

CUBESAT XI-V - Pass Details

Date: 03 July 2022
Orbit: 667 x 690 km, 98.1° (Epoch: 07 August)

Event Time Altitude Azimuth Distance (km) Brightness Sun altitude
Exits shadow 09:05:04 32° 191° (SSW) 1,157 ? -17.4°
Maximum altitude 09:07:03 60° 259° (WSW) 770 ? -17.2°
Drops below altitude 10° 09:11:37 10° 340° (NNW) 2,107 ? -16.8°
Sets 09:13:53 0° 344° (NNW) 3,024 ? -16.6°
